| time (UTC) | temp F | wind direction | speed MPH | gust MPH | rain 1hr in | rain 24hr in | rain mn in | humidity % | barometer mb |
| 20260510152516 | 56 | 0.0 | 3.0 | 0.00 | 0.00 | 0.00 | 35 | 1018.8 | |
| 20260510151516 | 56 | 203 | 1.0 | 6.0 | 0.00 | 0.00 | 0.00 | 34 | 1018.6 |
| 20260510150516 | 55 | 203 | 2.0 | 4.0 | 0.00 | 0.00 | 0.00 | 36 | 1018.6 |
| 20260510145516 | 55 | 158 | 2.0 | 4.0 | 0.00 | 0.00 | 0.00 | 38 | 1018.5 |
| 20260510144516 | 54 | 225 | 1.0 | 5.0 | 0.00 | 0.00 | 0.00 | 36 | 1018.5 |
| 20260510143516 | 54 | 135 | 1.0 | 5.0 | 0.00 | 0.00 | 0.00 | 39 | 1018.6 |
| 20260510142516 | 53 | 135 | 1.0 | 4.0 | 0.00 | 0.00 | 0.00 | 37 | 1018.6 |
| 20260510141516 | 53 | 68 | 1.0 | 3.0 | 0.00 | 0.00 | 0.00 | 36 | 1018.5 |
| 20260510140516 | 53 | 90 | 1.0 | 3.0 | 0.00 | 0.00 | 0.00 | 36 | 1018.7 |
| 20260510135516 | 53 | 0.0 | 3.0 | 0.00 | 0.00 | 0.00 | 42 | 1018.4 | |
| 20260510134516 | 52 | 45 | 1.0 | 3.0 | 0.00 | 0.00 | 0.00 | 39 | 1018.3 |
| 20260510133516 | 52 | 113 | 1.0 | 3.0 | 0.00 | 0.00 | 0.00 | 41 | 1018.4 |
| 20260510132516 | 51 | 113 | 2.0 | 3.0 | 0.00 | 0.00 | 0.00 | 41 | 1018.1 |
| 20260510131516 | 51 | 68 | 1.0 | 4.0 | 0.00 | 0.00 | 0.00 | 40 | 1018.1 |
| 20260510130516 | 50 | 68 | 1.0 | 3.0 | 0.00 | 0.00 | 0.00 | 46 | 1018.2 |
| 20260510125516 | 49 | 68 | 1.0 | 3.0 | 0.00 | 0.00 | 0.00 | 50 | 1018.0 |
| 20260510124516 | 48 | 0.0 | 2.0 | 0.00 | 0.00 | 0.00 | 54 | 1017.7 | |
| 20260510123516 | 47 | 0.0 | 2.0 | 0.00 | 0.00 | 0.00 | 59 | 1017.7 | |
| 20260510122516 | 45 | 0.0 | 2.0 | 0.00 | 0.00 | 0.00 | 63 | 1017.5 | |
| 20260510121516 | 44 | 0.0 | 1.0 | 0.00 | 0.00 | 0.00 | 71 | 1017.2 | |
| 20260510120516 | 43 | 0.0 | 0.0 | 0.00 | 0.00 | 0.00 | 72 | 1017.1 | |
| 20260510115516 | 42 | 0.0 | 0.0 | 0.00 | 0.00 | 0.00 | 74 | 1017.1 | |
| 20260510114516 | 41 | 0.0 | 0.0 | 0.00 | 0.00 | 0.00 | 76 | 1016.8 | |
| 20260510113516 | 39 | 0.0 | 0.0 | 0.00 | 0.00 | 0.00 | 77 | 1016.7 | |
| 20260510112516 | 39 | 0.0 | 0.0 | 0.00 | 0.00 | 0.00 | 77 | 1016.6 | |
| 20260510111516 | 38 | 0.0 | 0.0 | 0.00 | 0.00 | 0.00 | 77 | 1016.7 | |
| 20260510110516 | 38 | 0.0 | 0.0 | 0.00 | 0.00 | 0.00 | 77 | 1016.4 | |
| 20260510105516 | 39 | 0.0 | 0.0 | 0.00 | 0.00 | 0.00 | 77 | 1016.3 | |
| 20260510104516 | 39 | 0.0 | 0.0 | 0.00 | 0.00 | 0.00 | 77 | 1016.1 | |
| 20260510103516 | 39 | 0.0 | 0.0 | 0.00 | 0.00 | 0.00 | 76 | 1016.1 | |
| 20260510102516 | 39 | 0.0 | 0.0 | 0.00 | 0.00 | 0.00 | 76 | 1016.1 | |
| 20260510101516 | 39 | 0.0 | 0.0 | 0.00 | 0.00 | 0.00 | 76 | 1015.8 | |
| 20260510100516 | 39 | 0.0 | 0.0 | 0.00 | 0.00 | 0.00 | 76 | 1015.7 | |
| 20260510095516 | 39 | 0.0 | 0.0 | 0.00 | 0.00 | 0.00 | 75 | 1015.5 | |
| 20260510094516 | 40 | 0.0 | 0.0 | 0.00 | 0.00 | 0.00 | 76 | 1015.5 | |
| 20260510093516 | 39 | 0.0 | 0.0 | 0.00 | 0.00 | 0.00 | 75 | 1015.4 | |
| 20260510092516 | 39 | 0.0 | 1.0 | 0.00 | 0.00 | 0.00 | 75 | 1015.5 | |
| 20260510091516 | 40 | 0.0 | 0.0 | 0.00 | 0.00 | 0.00 | 75 | 1015.6 | |
| 20260510090516 | 40 | 0.0 | 0.0 | 0.00 | 0.00 | 0.00 | 74 | 1015.5 | |
| 20260510085516 | 41 | 0.0 | 0.0 | 0.00 | 0.00 | 0.00 | 73 | 1015.4 | |
| 20260510084516 | 41 | 0.0 | 0.0 | 0.00 | 0.00 | 0.00 | 72 | 1015.3 | |
| 20260510083516 | 42 | 0.0 | 0.0 | 0.00 | 0.00 | 0.00 | 70 | 1015.1 | |
| 20260510082516 | 42 | 0.0 | 0.0 | 0.00 | 0.00 | 0.00 | 69 | 1015.0 | |
| 20260510081516 | 43 | 0.0 | 0.0 | 0.00 | 0.00 | 0.00 | 68 | 1014.9 | |
| 20260510080516 | 44 | 0.0 | 0.0 | 0.00 | 0.00 | 0.00 | 66 | 1014.7 | |
| 20260510075516 | 44 | 0.0 | 0.0 | 0.00 | 0.00 | 0.00 | 65 | 1014.5 | |
| 20260510074516 | 45 | 0.0 | 0.0 | 0.00 | 0.00 | 0.00 | 63 | 1014.4 | |
| 20260510073516 | 45 | 0.0 | 1.0 | 0.00 | 0.00 | 0.00 | 62 | 1014.3 | |
| 20260510072517 | 45 | 0.0 | 1.0 | 0.00 | 0.00 | 0.00 | 62 | 1014.2 | |
| 20260510071516 | 46 | 0.0 | 2.0 | 0.00 | 0.00 | 0.00 | 61 | 1014.0 | |
| 20260510070516 | 46 | 68 | 1.0 | 3.0 | 0.00 | 0.00 | 0.00 | 61 | 1014.0 |
| 20260510065516 | 47 | 0.0 | 1.0 | 0.00 | 0.00 | 0.00 | 61 | 1013.9 | |
| 20260510064516 | 47 | 68 | 1.0 | 3.0 | 0.00 | 0.00 | 0.00 | 61 | 1013.8 |
| 20260510063516 | 47 | 68 | 2.0 | 4.0 | 0.00 | 0.00 | 0.00 | 62 | 1013.7 |
| 20260510062516 | 47 | 45 | 1.0 | 2.0 | 0.00 | 0.00 | 0.00 | 64 | 1013.6 |
| 20260510061516 | 47 | 0.0 | 2.0 | 0.00 | 0.00 | 0.00 | 65 | 1013.6 | |
| 20260510060516 | 46 | 0.0 | 0.0 | 0.00 | 0.00 | 0.00 | 68 | 1013.3 | |
| 20260510055516 | 45 | 45 | 1.0 | 3.0 | 0.00 | 0.00 | 0.00 | 72 | 1013.0 |
| 20260510054516 | 45 | 0.0 | 2.0 | 0.00 | 0.00 | 0.00 | 73 | 1012.6 | |
| 20260510053516 | 45 | 0.0 | 1.0 | 0.00 | 0.00 | 0.00 | 73 | 1012.2 | |
| 20260510052516 | 45 | 0.0 | 0.0 | 0.00 | 0.00 | 0.00 | 72 | 1012.1 | |
| 20260510051516 | 45 | 0.0 | 0.0 | 0.00 | 0.00 | 0.00 | 72 | 1011.9 | |
| 20260510050516 | 46 | 0.0 | 0.0 | 0.00 | 0.00 | 0.00 | 71 | 1011.9 | |
| 20260510045517 | 46 | 0.0 | 0.0 | 0.00 | 0.00 | 0.00 | 71 | 1011.8 | |
| 20260510044517 | 46 | 0.0 | 0.0 | 0.00 | 0.00 | 0.00 | 70 | 1011.7 | |
| 20260510043517 | 47 | 0.0 | 0.0 | 0.00 | 0.00 | 0.00 | 68 | 1011.5 | |
| 20260510042516 | 47 | 0.0 | 0.0 | 0.00 | 0.00 | 0.00 | 67 | 1011.3 | |
| 20260510041516 | 47 | 0.0 | 0.0 | 0.00 | 0.00 | 0.00 | 67 | 1011.2 | |
| 20260510035517 | 48 | 0.0 | 0.0 | 0.00 | 0.00 | 0.00 | 64 | 1010.9 | |
| 20260510034517 | 49 | 0.0 | 0.0 | 0.00 | 0.00 | 0.00 | 64 | 1010.8 | |
| 20260510033516 | 49 | 0.0 | 0.0 | 0.00 | 0.00 | 0.00 | 62 | 1010.6 | |
| 20260510032517 | 50 | 0.0 | 1.0 | 0.00 | 0.00 | 0.00 | 62 | 1010.5 | |
| 20260510031517 | 50 | 0.0 | 1.0 | 0.00 | 0.00 | 0.00 | 60 | 1010.4 | |
| 20260510030517 | 51 | 0.0 | 0.0 | 0.00 | 0.00 | 0.00 | 58 | 1010.3 | |
| 20260510025517 | 52 | 0.0 | 0.0 | 0.00 | 0.00 | 0.00 | 56 | 1010.2 | |
| 20260510024516 | 52 | 0.0 | 0.0 | 0.00 | 0.00 | 0.00 | 55 | 1010.0 | |
| 20260510023517 | 53 | 0.0 | 0.0 | 0.00 | 0.00 | 0.00 | 54 | 1009.8 | |
| 20260510022517 | 54 | 0.0 | 0.0 | 0.00 | 0.00 | 0.00 | 52 | 1009.5 | |
| 20260510021516 | 54 | 0.0 | 0.0 | 0.00 | 0.00 | 0.00 | 51 | 1009.3 | |
| 20260510020517 | 55 | 0.0 | 0.0 | 0.00 | 0.00 | 0.00 | 50 | 1009.2 | |
| 20260510015516 | 56 | 0.0 | 1.0 | 0.00 | 0.00 | 0.00 | 49 | 1009.0 | |
| 20260510014517 | 57 | 0 | 1.0 | 2.0 | 0.00 | 0.00 | 0.00 | 47 | 1008.7 |
| 20260510014017 | 58 | 0.0 | 2.0 | 0.00 | 0.00 | 0.00 | 47 | 1008.5 | |
| 20260510013017 | 59 | 0 | 1.0 | 1.0 | 0.00 | 0.00 | 0.00 | 45 | 1008.3 |
| 20260510012017 | 60 | 68 | 1.0 | 2.0 | 0.00 | 0.00 | 0.00 | 43 | 1008.0 |
| 20260510011017 | 63 | 0 | 2.0 | 4.0 | 0.00 | 0.00 | 0.00 | 40 | 1007.9 |
| 20260510010016 | 64 | 0.0 | 2.0 | 0.00 | 0.00 | 0.00 | 40 | 1007.6 | |
| 20260510005016 | 64 | 0 | 1.0 | 2.0 | 0.00 | 0.00 | 0.00 | 39 | 1007.3 |
| 20260510004017 | 65 | 338 | 2.0 | 7.0 | 0.00 | 0.00 | 0.00 | 38 | 1007.1 |
| 20260510003016 | 66 | 0 | 1.0 | 3.0 | 0.00 | 0.00 | 0.00 | 38 | 1006.9 |
| 20260510002016 | 66 | 338 | 1.0 | 2.0 | 0.00 | 0.00 | 0.00 | 37 | 1006.7 |
| 20260510001017 | 67 | 0 | 1.0 | 4.0 | 0.00 | 0.00 | 0.00 | 37 | 1006.4 |
| 20260510000017 | 68 | 0 | 2.0 | 5.0 | 0.00 | 0.00 | 0.00 | 35 | 1006.3 |
| 20260509235017 | 68 | 315 | 2.0 | 6.0 | 0.00 | 0.00 | 0.00 | 32 | 1006.1 |
| 20260509234017 | 69 | 338 | 2.0 | 5.0 | 0.00 | 0.00 | 0.00 | 30 | 1005.9 |
| 20260509233016 | 69 | 270 | 2.0 | 4.0 | 0.00 | 0.00 | 0.00 | 30 | 1005.7 |
| 20260509232016 | 69 | 338 | 2.0 | 5.0 | 0.00 | 0.00 | 0.00 | 31 | 1005.5 |
| 20260509231017 | 70 | 0 | 3.0 | 8.0 | 0.00 | 0.00 | 0.00 | 30 | 1005.5 |
| 20260509230017 | 70 | 315 | 4.0 | 8.0 | 0.00 | 0.00 | 0.00 | 29 | 1005.4 |
| 20260509225017 | 70 | 315 | 2.0 | 9.0 | 0.00 | 0.00 | 0.00 | 30 | 1005.3 |
| 20260509224017 | 71 | 315 | 2.0 | 5.0 | 0.00 | 0.00 | 0.00 | 30 | 1005.3 |
| 20260509223017 | 71 | 315 | 2.0 | 5.0 | 0.00 | 0.00 | 0.00 | 28 | 1005.1 |
| 20260509222016 | 72 | 338 | 3.0 | 9.0 | 0.00 | 0.00 | 0.00 | 28 | 1005.0 |
| 20260509221016 | 72 | 315 | 3.0 | 6.0 | 0.00 | 0.00 | 0.00 | 29 | 1004.9 |
| 20260509220016 | 73 | 315 | 3.0 | 9.0 | 0.00 | 0.00 | 0.00 | 28 | 1004.7 |
| 20260509215016 | 73 | 315 | 3.0 | 10.0 | 0.00 | 0.00 | 0.00 | 26 | 1004.7 |
| 20260509214017 | 73 | 315 | 4.0 | 12.0 | 0.00 | 0.00 | 0.00 | 29 | 1004.5 |
| 20260509213017 | 74 | 315 | 2.0 | 6.0 | 0.00 | 0.00 | 0.00 | 30 | 1004.3 |
| 20260509212017 | 74 | 315 | 3.0 | 9.0 | 0.00 | 0.00 | 0.00 | 28 | 1004.2 |
| 20260509211017 | 73 | 338 | 3.0 | 7.0 | 0.00 | 0.00 | 0.00 | 27 | 1004.0 |
| 20260509210017 | 74 | 315 | 4.0 | 9.0 | 0.00 | 0.00 | 0.00 | 31 | 1003.9 |
| 20260509205017 | 74 | 293 | 3.0 | 8.0 | 0.00 | 0.00 | 0.00 | 30 | 1003.8 |
| 20260509204016 | 75 | 293 | 3.0 | 8.0 | 0.00 | 0.00 | 0.00 | 29 | 1003.7 |
| 20260509203016 | 74 | 315 | 4.0 | 12.0 | 0.00 | 0.00 | 0.00 | 30 | 1003.8 |
| 20260509202017 | 73 | 315 | 4.0 | 9.0 | 0.00 | 0.00 | 0.00 | 32 | 1003.8 |
| 20260509201016 | 73 | 315 | 4.0 | 10.0 | 0.00 | 0.00 | 0.00 | 31 | 1003.9 |
| 20260509200016 | 72 | 315 | 2.0 | 5.0 | 0.00 | 0.00 | 0.00 | 32 | 1003.8 |
| 20260509195017 | 72 | 270 | 3.0 | 11.0 | 0.00 | 0.00 | 0.00 | 31 | 1003.9 |
| 20260509194017 | 71 | 270 | 5.0 | 16.0 | 0.00 | 0.00 | 0.00 | 31 | 1004.0 |
| 20260509193017 | 71 | 315 | 4.0 | 10.0 | 0.00 | 0.00 | 0.00 | 32 | 1004.1 |
| 20260509192017 | 71 | 203 | 3.0 | 11.0 | 0.00 | 0.00 | 0.00 | 32 | 1004.0 |
| 20260509191016 | 70 | 270 | 4.0 | 14.0 | 0.00 | 0.00 | 0.00 | 33 | 1004.0 |
| 20260509190017 | 71 | 293 | 4.0 | 15.0 | 0.00 | 0.00 | 0.00 | 31 | 1003.9 |
| 20260509185017 | 71 | 225 | 4.0 | 12.0 | 0.00 | 0.00 | 0.00 | 33 | 1003.8 |
| 20260509184016 | 71 | 293 | 3.0 | 13.0 | 0.00 | 0.00 | 0.00 | 30 | 1003.6 |
| 20260509183016 | 70 | 225 | 2.0 | 4.0 | 0.00 | 0.00 | 0.00 | 36 | 1003.7 |
| 20260509182016 | 69 | 225 | 2.0 | 6.0 | 0.00 | 0.00 | 0.00 | 39 | 1003.8 |
| 20260509181016 | 68 | 338 | 1.0 | 4.0 | 0.00 | 0.00 | 0.00 | 35 | 1003.8 |
| 20260509180016 | 68 | 293 | 2.0 | 6.0 | 0.00 | 0.00 | 0.00 | 32 | 1004.1 |
| 20260509175017 | 69 | 270 | 2.0 | 6.0 | 0.00 | 0.00 | 0.00 | 35 | 1004.1 |
| 20260509174017 | 70 | 293 | 1.0 | 3.0 | 0.00 | 0.00 | 0.00 | 35 | 1004.2 |
| 20260509173016 | 69 | 293 | 1.0 | 5.0 | 0.00 | 0.00 | 0.00 | 33 | 1004.2 |
| 20260509172017 | 70 | 270 | 2.0 | 9.0 | 0.00 | 0.00 | 0.00 | 32 | 1004.3 |
| 20260509171017 | 70 | 270 | 2.0 | 7.0 | 0.00 | 0.00 | 0.00 | 32 | 1004.3 |
| 20260509170017 | 70 | 315 | 2.0 | 4.0 | 0.00 | 0.00 | 0.00 | 35 | 1004.3 |
| 20260509165016 | 70 | 293 | 3.0 | 14.0 | 0.00 | 0.00 | 0.00 | 33 | 1004.4 |
| 20260509164016 | 68 | 0 | 2.0 | 10.0 | 0.00 | 0.00 | 0.00 | 38 | 1004.3 |
| 20260509163017 | 68 | 248 | 2.0 | 12.0 | 0.00 | 0.00 | 0.00 | 46 | 1004.3 |
| 20260509162016 | 67 | 270 | 2.0 | 9.0 | 0.00 | 0.00 | 0.00 | 44 | 1004.3 |
| 20260509161017 | 67 | 270 | 1.0 | 3.0 | 0.00 | 0.00 | 0.00 | 51 | 1004.3 |
| 20260509160016 | 67 | 203 | 2.0 | 6.0 | 0.00 | 0.00 | 0.00 | 50 | 1004.2 |
| 20260509155017 | 66 | 248 | 2.0 | 8.0 | 0.00 | 0.00 | 0.00 | 52 | 1004.1 |
| 20260509154017 | 66 | 270 | 2.0 | 6.0 | 0.00 | 0.00 | 0.00 | 54 | 1004.1 |